星链-4135 (STARLINK-4135 )

导读

STARLINK-4135是美国SpaceX公司星链(Starlink)星座的组网卫星,于2022年7月24日发射入轨,属于星链低轨互联网星座的第四批组网卫星。它采用平板设计、氪工质霍尔推进,运行在约550公里近地轨道,搭载Ku/Ka波段通信载荷与星间链路,为全球提供高速宽带互联网服务,设计寿命5-7年,退役后会主动离轨再入大气层烧毁,是星链全球星座部署的重要组成部分。

Basic Information
目录编号:
53248
目录名称:
STARLINK-4135
国际标识:
2022-086G
轨道中心:
EARTH
卫星名称:
星链-4135
卫星全名:
星链-4135 (STARLINK-4135 )
卫星状态:
在轨 (已飞行1424 天)
发射日期:
2022-07-24 UTC
国别 :
美国 (US)
星等 :
--
Orbit Information
数据来源 国际轨道数据 AOE轨道数据
星历时间 2026-06-17T11:12:31+0800
10小时前
查看轨道信息
2026-06-14T03:00:00+0800
3天前
查看轨道信息
半长轴 6917.906km 6917.897km
偏心率 0.0001446 0.0001444
轨道倾角 53.160° 53.159°
近地点辐角 89.587° 92.213°
升交点赤经 112.710° 127.733°
平近点角 270.529° 104.768°
近地点 538.768km 538.761km
远地点 540.77km 540.759km
周期 95.438分钟 95.438分钟
每日圈数 15.088318 15.088346
Detailed Information
固有亮度:
5
最大亮度:
2.5
卫星平台:
Starlink v1.5
覆盖范围:
全球
运营商:
太空探索技术公司
运营商所在国:
美国
制造商(研发单位):
太空探索技术公司
制造商所在国:
美国
使用方式:
暂无
Satellite Introduction
星链(Starlink)计划是由太空探索技术公司(SpaceX)提出的一个巨型低轨卫星互联网星座项目,计划在2019年至2024年间在太空搭建由约1.2万颗卫星组成的“星链”网络,其中1584颗将部署在地球上空550千米处的近地轨道,并从2020年开始工作。该卫星仍在工作。
2D Orbit Map
3D Orbit Map
Orbit Altitude Analysis Chart
Orbit Inclination Analysis Chart
Orbit Comprehensive Analysis Chart
View Comprehensive Chart